Time,TemperatureF,DewpointF,PressureIn,WindDirection,WindDirectionDegrees,WindSpeedMPH,WindSpeedGustMPH,Humidity,HourlyPrecipIn,Conditions,Clouds,dailyrainin,SoftwareType,DateUTC
2013-01-30 00:01:00,8.0,1.0,30.16,East,89,0.0,-999.0,72,-99.99,,,-99.99,,2013-01-30 07:01:00,
2013-01-30 00:11:00,8.0,1.0,30.16,East,89,0.0,-999.0,72,-99.99,,,-99.99,,2013-01-30 07:11:00,
2013-01-30 00:21:00,7.0,0.0,30.17,East,88,0.0,-999.0,72,-99.99,,,-99.99,,2013-01-30 07:21:00,
2013-01-30 00:31:00,7.0,0.0,30.18,East,88,0.0,-999.0,74,-99.99,,,-99.99,,2013-01-30 07:31:00,
2013-01-30 00:42:00,7.0,0.0,30.18,East,88,0.0,-999.0,74,-99.99,,,-99.99,,2013-01-30 07:42:00,
2013-01-30 00:52:00,7.0,0.0,30.18,East,88,0.0,-999.0,74,-99.99,,,-99.99,,2013-01-30 07:52:00,
2013-01-30 01:01:00,6.0,0.0,30.18,East,89,0.0,-999.0,74,-99.99,,,-99.99,,2013-01-30 08:01:00,
2013-01-30 01:11:00,6.0,0.0,30.18,East,89,0.0,-999.0,74,-99.99,,,-99.99,,2013-01-30 08:11:00,
2013-01-30 01:21:00,6.0,0.0,30.18,East,89,0.0,-999.0,74,-99.99,,,-99.99,,2013-01-30 08:21:00,
2013-01-30 01:32:00,6.0,0.0,30.19,East,88,0.0,-999.0,75,-99.99,,,-99.99,,2013-01-30 08:32:00,
2013-01-30 01:41:00,6.0,0.0,30.19,East,88,0.0,-999.0,75,-99.99,,,-99.99,,2013-01-30 08:41:00,
2013-01-30 01:52:00,6.0,0.0,30.21,East,88,0.0,-999.0,74,-99.99,,,-99.99,,2013-01-30 08:52:00,
2013-01-30 02:01:00,6.0,0.0,30.21,East,88,0.0,-999.0,74,-99.99,,,-99.99,,2013-01-30 09:01:00,
2013-01-30 02:11:00,6.0,0.0,30.21,East,88,0.0,-999.0,74,-99.99,,,-99.99,,2013-01-30 09:11:00,
2013-01-30 02:21:00,5.0,-1.0,30.22,East,89,0.0,-999.0,75,-99.99,,,-99.99,,2013-01-30 09:21:00,
2013-01-30 02:31:00,5.0,-1.0,30.23,East,89,0.0,-999.0,75,-99.99,,,-99.99,,2013-01-30 09:31:00,
2013-01-30 02:41:00,5.0,-1.0,30.23,East,89,0.0,-999.0,75,-99.99,,,-99.99,,2013-01-30 09:41:00,
2013-01-30 02:51:00,5.0,-1.0,30.23,East,89,0.0,-999.0,75,-99.99,,,-99.99,,2013-01-30 09:51:00,
2013-01-30 03:01:00,5.0,-1.0,30.23,East,88,0.0,-999.0,77,-99.99,,,-99.99,,2013-01-30 10:01:00,
2013-01-30 03:11:00,5.0,-1.0,30.23,East,88,0.0,-999.0,77,-99.99,,,-99.99,,2013-01-30 10:11:00,
2013-01-30 03:21:00,4.0,-2.0,30.24,East,89,0.0,-999.0,76,-99.99,,,-99.99,,2013-01-30 10:21:00,
2013-01-30 03:31:00,4.0,-2.0,30.24,East,89,0.0,-999.0,76,-99.99,,,-99.99,,2013-01-30 10:31:00,
2013-01-30 03:42:00,4.0,-2.0,30.24,East,89,0.0,-999.0,76,-99.99,,,-99.99,,2013-01-30 10:42:00,
2013-01-30 03:52:00,3.0,-3.0,30.23,East,89,0.0,-999.0,75,-99.99,,,-99.99,,2013-01-30 10:52:00,
2013-01-30 04:01:00,4.0,-1.0,30.24,East,89,0.0,-999.0,78,-99.99,,,-99.99,,2013-01-30 11:01:00,
2013-01-30 04:11:00,4.0,-1.0,30.24,East,89,0.0,-999.0,78,-99.99,,,-99.99,,2013-01-30 11:11:00,
2013-01-30 04:21:00,4.0,-1.0,30.24,East,89,0.0,-999.0,78,-99.99,,,-99.99,,2013-01-30 11:21:00,
2013-01-30 04:32:00,2.0,-4.0,30.24,East,88,0.0,-999.0,76,-99.99,,,-99.99,,2013-01-30 11:32:00,
2013-01-30 04:41:00,2.0,-4.0,30.24,East,88,0.0,-999.0,76,-99.99,,,-99.99,,2013-01-30 11:41:00,
2013-01-30 04:51:00,2.0,-3.0,30.25,East,89,0.0,-999.0,79,-99.99,,,-99.99,,2013-01-30 11:51:00,
2013-01-30 05:02:00,2.0,-3.0,30.25,East,89,0.0,-999.0,79,-99.99,,,-99.99,,2013-01-30 12:02:00,
2013-01-30 05:12:00,2.0,-3.0,30.25,East,89,0.0,-999.0,79,-99.99,,,-99.99,,2013-01-30 12:12:00,
2013-01-30 05:22:00,3.0,-2.0,30.27,East,89,0.0,-999.0,80,-99.99,,,-99.99,,2013-01-30 12:22:00,
2013-01-30 05:32:00,2.0,-3.0,30.26,East,88,0.0,-999.0,79,-99.99,,,-99.99,,2013-01-30 12:32:00,
2013-01-30 05:43:00,2.0,-3.0,30.26,East,88,0.0,-999.0,79,-99.99,,,-99.99,,2013-01-30 12:43:00,
2013-01-30 06:02:00,1.0,-4.0,30.26,East,88,0.0,-999.0,79,-99.99,,,-99.99,,2013-01-30 13:02:00,
2013-01-30 06:12:00,1.0,-4.0,30.26,East,88,0.0,-999.0,79,-99.99,,,-99.99,,2013-01-30 13:12:00,
2013-01-30 06:22:00,1.0,-4.0,30.26,East,89,0.0,-999.0,80,-99.99,,,-99.99,,2013-01-30 13:22:00,
2013-01-30 06:32:00,1.0,-3.0,30.27,East,89,0.0,-999.0,81,-99.99,,,-99.99,,2013-01-30 13:32:00,
2013-01-30 06:43:00,1.0,-3.0,30.27,East,89,0.0,-999.0,81,-99.99,,,-99.99,,2013-01-30 13:43:00,
2013-01-30 06:53:00,2.0,-3.0,30.29,East,89,0.0,-999.0,80,-99.99,,,-99.99,,2013-01-30 13:53:00,
2013-01-30 07:01:00,2.0,-3.0,30.30,East,88,0.0,-999.0,79,-99.99,,,-99.99,,2013-01-30 14:01:00,
2013-01-30 07:21:00,1.0,-5.0,30.30,East,89,0.0,-999.0,75,-99.99,,,-99.99,,2013-01-30 14:21:00,
2013-01-30 07:32:00,0.0,-6.0,30.33,East,89,0.0,-999.0,76,-99.99,,,-99.99,,2013-01-30 14:32:00,
2013-01-30 07:42:00,0.0,-6.0,30.33,East,89,0.0,-999.0,76,-99.99,,,-99.99,,2013-01-30 14:42:00,
2013-01-30 08:02:00,0.0,-5.0,30.35,East,89,0.0,-999.0,78,-99.99,,,-99.99,,2013-01-30 15:02:00,
2013-01-30 08:11:00,0.0,-5.0,30.35,East,89,0.0,-999.0,78,-99.99,,,-99.99,,2013-01-30 15:11:00,
2013-01-30 08:22:00,2.0,-3.0,30.37,East,88,0.0,-999.0,79,-99.99,,,-99.99,,2013-01-30 15:22:00,
2013-01-30 08:32:00,2.0,-3.0,30.36,East,88,0.0,-999.0,78,-99.99,,,-99.99,,2013-01-30 15:32:00,
2013-01-30 08:43:00,2.0,-3.0,30.36,East,88,0.0,-999.0,78,-99.99,,,-99.99,,2013-01-30 15:43:00,
2013-01-30 08:53:00,2.0,-3.0,30.36,East,88,0.0,-999.0,78,-99.99,,,-99.99,,2013-01-30 15:53:00,
2013-01-30 09:02:00,4.0,-2.0,30.39,East,89,0.0,-999.0,77,-99.99,,,-99.99,,2013-01-30 16:02:00,
2013-01-30 09:11:00,4.0,-2.0,30.39,East,89,0.0,-999.0,77,-99.99,,,-99.99,,2013-01-30 16:11:00,
2013-01-30 09:22:00,5.0,-1.0,30.39,East,89,0.0,-999.0,77,-99.99,,,-99.99,,2013-01-30 16:22:00,
2013-01-30 09:32:00,5.0,-1.0,30.39,East,89,0.0,-999.0,77,-99.99,,,-99.99,,2013-01-30 16:32:00,
2013-01-30 09:41:00,5.0,-1.0,30.39,East,89,0.0,-999.0,77,-99.99,,,-99.99,,2013-01-30 16:41:00,
2013-01-30 09:51:00,5.0,-1.0,30.39,East,89,0.0,-999.0,77,-99.99,,,-99.99,,2013-01-30 16:51:00,
2013-01-30 10:01:00,9.0,2.0,30.40,East,88,0.0,-999.0,71,-99.99,,,-99.99,,2013-01-30 17:01:00,
2013-01-30 10:22:00,10.0,2.0,30.41,East,90,1.0,-999.0,68,-99.99,,,-99.99,,2013-01-30 17:22:00,
2013-01-30 10:32:00,13.0,3.0,30.43,East,90,0.0,-999.0,64,-99.99,,,-99.99,,2013-01-30 17:32:00,
2013-01-30 10:42:00,13.0,3.0,30.43,East,90,0.0,-999.0,64,-99.99,,,-99.99,,2013-01-30 17:42:00,
2013-01-30 10:52:00,15.0,4.0,30.45,East,90,0.0,-999.0,60,-99.99,,,-99.99,,2013-01-30 17:52:00,
2013-01-30 11:02:00,16.0,5.0,30.45,SSW,194,1.0,-999.0,60,-99.99,,,-99.99,,2013-01-30 18:02:00,
2013-01-30 11:11:00,16.0,5.0,30.45,SSW,194,1.0,-999.0,60,-99.99,,,-99.99,,2013-01-30 18:11:00,
2013-01-30 11:21:00,18.0,5.0,30.45,SSW,194,1.0,-999.0,57,-99.99,,,-99.99,,2013-01-30 18:21:00,
2013-01-30 11:32:00,18.0,5.0,30.45,SSW,194,1.0,-999.0,56,-99.99,,,-99.99,,2013-01-30 18:32:00,
2013-01-30 11:42:00,18.0,5.0,30.45,SSW,194,1.0,-999.0,56,-99.99,,,-99.99,,2013-01-30 18:42:00,
2013-01-30 11:51:00,17.0,7.0,30.45,WNW,296,5.0,-999.0,64,-99.99,,,-99.99,,2013-01-30 18:51:00,
2013-01-30 12:02:00,19.0,8.0,30.45,West,264,2.0,-999.0,62,-99.99,,,-99.99,,2013-01-30 19:02:00,
2013-01-30 12:11:00,19.0,8.0,30.45,West,264,2.0,-999.0,62,-99.99,,,-99.99,,2013-01-30 19:11:00,
2013-01-30 12:21:00,19.0,8.0,30.45,West,264,2.0,-999.0,62,-99.99,,,-99.99,,2013-01-30 19:21:00,
2013-01-30 12:32:00,20.0,8.0,30.44,West,264,3.0,-999.0,60,-99.99,,,-99.99,,2013-01-30 19:32:00,
2013-01-30 13:02:00,23.0,10.0,30.44,West,270,2.0,-999.0,57,-99.99,,,-99.99,,2013-01-30 20:02:00,
2013-01-30 13:11:00,23.0,10.0,30.44,West,270,2.0,-999.0,57,-99.99,,,-99.99,,2013-01-30 20:11:00,
2013-01-30 13:21:00,23.0,11.0,30.43,WSW,253,2.0,-999.0,59,-99.99,,,-99.99,,2013-01-30 20:21:00,
2013-01-30 13:33:00,24.0,11.0,30.42,WNW,290,2.0,-999.0,56,-99.99,,,-99.99,,2013-01-30 20:33:00,
2013-01-30 13:41:00,24.0,11.0,30.42,WNW,290,2.0,-999.0,56,-99.99,,,-99.99,,2013-01-30 20:41:00,
2013-01-30 13:52:00,24.0,11.0,30.42,South,184,3.0,-999.0,57,-99.99,,,-99.99,,2013-01-30 20:52:00,
2013-01-30 14:02:00,25.0,13.0,30.42,SW,230,3.0,-999.0,60,-99.99,,,-99.99,,2013-01-30 21:02:00,
2013-01-30 14:11:00,25.0,13.0,30.42,SW,230,3.0,-999.0,60,-99.99,,,-99.99,,2013-01-30 21:11:00,
2013-01-30 14:21:00,25.0,13.0,30.43,West,263,3.0,-999.0,60,-99.99,,,-99.99,,2013-01-30 21:21:00,
2013-01-30 14:31:00,25.0,14.0,30.42,West,266,3.0,-999.0,62,-99.99,,,-99.99,,2013-01-30 21:31:00,
2013-01-30 14:42:00,25.0,14.0,30.42,West,266,3.0,-999.0,62,-99.99,,,-99.99,,2013-01-30 21:42:00,
2013-01-30 14:52:00,25.0,14.0,30.43,East,101,2.0,-999.0,62,-99.99,,,-99.99,,2013-01-30 21:52:00,
2013-01-30 15:02:00,26.0,14.0,30.43,SW,214,2.0,-999.0,61,-99.99,,,-99.99,,2013-01-30 22:02:00,
2013-01-30 15:11:00,26.0,14.0,30.43,SW,214,2.0,-999.0,61,-99.99,,,-99.99,,2013-01-30 22:11:00,
2013-01-30 15:21:00,26.0,15.0,30.43,West,261,2.0,-999.0,62,-99.99,,,-99.99,,2013-01-30 22:21:00,
2013-01-30 15:31:00,26.0,15.0,30.43,West,261,2.0,-999.0,62,-99.99,,,-99.99,,2013-01-30 22:31:00,
2013-01-30 15:41:00,26.0,15.0,30.43,West,261,2.0,-999.0,62,-99.99,,,-99.99,,2013-01-30 22:41:00,
2013-01-30 15:52:00,25.0,15.0,30.43,West,263,1.0,-999.0,64,-99.99,,,-99.99,,2013-01-30 22:52:00,
2013-01-30 16:01:00,24.0,14.0,30.44,WSW,257,0.0,-999.0,66,-99.99,,,-99.99,,2013-01-30 23:01:00,
2013-01-30 16:11:00,24.0,14.0,30.44,WSW,257,0.0,-999.0,66,-99.99,,,-99.99,,2013-01-30 23:11:00,
2013-01-30 16:22:00,23.0,14.0,30.44,SSW,203,0.0,-999.0,67,-99.99,,,-99.99,,2013-01-30 23:22:00,
2013-01-30 16:42:00,23.0,14.0,30.44,SSW,203,0.0,-999.0,67,-99.99,,,-99.99,,2013-01-30 23:42:00,
2013-01-30 16:52:00,23.0,14.0,30.44,SSW,212,0.0,-999.0,69,-99.99,,,-99.99,,2013-01-30 23:52:00,
2013-01-30 17:01:00,22.0,14.0,30.44,SSW,212,0.0,-999.0,70,-99.99,,,-99.99,,2013-01-31 00:01:00,
2013-01-30 17:11:00,22.0,14.0,30.44,SSW,212,0.0,-999.0,70,-99.99,,,-99.99,,2013-01-31 00:11:00,
2013-01-30 17:21:00,22.0,14.0,30.44,SSW,212,0.0,-999.0,70,-99.99,,,-99.99,,2013-01-31 00:21:00,
2013-01-30 17:31:00,22.0,14.0,30.43,SSW,212,0.0,-999.0,70,-99.99,,,-99.99,,2013-01-31 00:31:00,
2013-01-30 17:42:00,22.0,14.0,30.43,SSW,212,0.0,-999.0,70,-99.99,,,-99.99,,2013-01-31 00:42:00,
2013-01-30 17:52:00,21.0,13.0,30.42,SSW,211,0.0,-999.0,72,-99.99,,,-99.99,,2013-01-31 00:52:00,
2013-01-30 18:01:00,19.0,12.0,30.43,SSW,212,0.0,-999.0,75,-99.99,,,-99.99,,2013-01-31 01:01:00,
2013-01-30 18:11:00,19.0,12.0,30.43,SSW,212,0.0,-999.0,75,-99.99,,,-99.99,,2013-01-31 01:11:00,
2013-01-30 18:21:00,18.0,12.0,30.43,SSW,212,0.0,-999.0,77,-99.99,,,-99.99,,2013-01-31 01:21:00,
2013-01-30 18:31:00,18.0,12.0,30.43,SSW,212,0.0,-999.0,77,-99.99,,,-99.99,,2013-01-31 01:31:00,
2013-01-30 18:41:00,18.0,12.0,30.43,SSW,212,0.0,-999.0,77,-99.99,,,-99.99,,2013-01-31 01:41:00,
2013-01-30 18:52:00,16.0,11.0,30.44,SSW,211,0.0,-999.0,79,-99.99,,,-99.99,,2013-01-31 01:52:00,
2013-01-30 19:01:00,17.0,12.0,30.44,SSW,211,0.0,-999.0,81,-99.99,,,-99.99,,2013-01-31 02:01:00,
2013-01-30 19:11:00,17.0,12.0,30.44,SSW,211,0.0,-999.0,81,-99.99,,,-99.99,,2013-01-31 02:11:00,
2013-01-30 19:21:00,17.0,12.0,30.44,SSW,211,0.0,-999.0,81,-99.99,,,-99.99,,2013-01-31 02:21:00,
2013-01-30 19:31:00,16.0,11.0,30.45,SSW,212,0.0,-999.0,80,-99.99,,,-99.99,,2013-01-31 02:31:00,
2013-01-30 19:41:00,16.0,11.0,30.45,SSW,212,0.0,-999.0,80,-99.99,,,-99.99,,2013-01-31 02:41:00,
2013-01-30 19:51:00,16.0,11.0,30.45,SSW,212,0.0,-999.0,80,-99.99,,,-99.99,,2013-01-31 02:51:00,
2013-01-30 20:02:00,15.0,10.0,30.45,SSW,212,0.0,-999.0,80,-99.99,,,-99.99,,2013-01-31 03:02:00,
2013-01-30 20:31:00,14.0,9.0,30.46,SSW,211,0.0,-999.0,81,-99.99,,,-99.99,,2013-01-31 03:31:00,
2013-01-30 20:51:00,14.0,9.0,30.47,SSW,211,0.0,-999.0,81,-99.99,,,-99.99,,2013-01-31 03:51:00,
2013-01-30 21:02:00,15.0,10.0,30.47,SSW,212,0.0,-999.0,81,-99.99,,,-99.99,,2013-01-31 04:02:00,
2013-01-30 21:11:00,15.0,10.0,30.47,SSW,212,0.0,-999.0,81,-99.99,,,-99.99,,2013-01-31 04:11:00,
2013-01-30 21:22:00,15.0,10.0,30.47,SSW,212,0.0,-999.0,81,-99.99,,,-99.99,,2013-01-31 04:22:00,
2013-01-30 21:31:00,14.0,9.0,30.47,SSW,212,0.0,-999.0,81,-99.99,,,-99.99,,2013-01-31 04:31:00,
2013-01-30 21:41:00,14.0,9.0,30.47,SSW,212,0.0,-999.0,81,-99.99,,,-99.99,,2013-01-31 04:41:00,
2013-01-30 21:51:00,14.0,9.0,30.48,SSW,211,0.0,-999.0,81,-99.99,,,-99.99,,2013-01-31 04:51:00,
2013-01-30 22:03:00,14.0,9.0,30.48,SSW,211,0.0,-999.0,81,-99.99,,,-99.99,,2013-01-31 05:03:00,
2013-01-30 22:11:00,14.0,9.0,30.48,SSW,211,0.0,-999.0,81,-99.99,,,-99.99,,2013-01-31 05:11:00,
2013-01-30 22:21:00,13.0,9.0,30.48,SSW,212,0.0,-999.0,82,-99.99,,,-99.99,,2013-01-31 05:21:00,
2013-01-30 22:31:00,13.0,9.0,30.48,SSW,212,0.0,-999.0,82,-99.99,,,-99.99,,2013-01-31 05:31:00,
2013-01-30 22:41:00,12.0,7.0,30.47,SSW,212,0.0,-999.0,81,-99.99,,,-99.99,,2013-01-31 05:41:00,
2013-01-30 22:51:00,12.0,7.0,30.47,SSW,212,0.0,-999.0,81,-99.99,,,-99.99,,2013-01-31 05:51:00,
2013-01-30 23:01:00,12.0,7.0,30.47,SSW,212,0.0,-999.0,81,-99.99,,,-99.99,,2013-01-31 06:01:00,